Regional Weather Roundup
Issued by NWS

Home | Current Version | Previous Version | Text Only | Print | Product List | Glossary Off
Versions: 1 2 3 4 5 6 7 8 9 10 11 12 13 14 15 16 17 18 19 20 21 22 23 24 25 26 27 28 29 30 31 32 33 34 35 36 37 38 39 40 41 42 43 44 45 46 47 48 49 50

000
ASUS43 KLSX 200759
RWRMO

WEATHER SUMMARY FOR MISSOURI
NATIONAL WEATHER SERVICE SPRINGFIELD MO
300 AM CDT SAT SEP 20 2014

NOTE: "FAIR" INDICATES FEW OR NO CLOUDS BELOW 12,000 FEET WITH NO
       SIGNIFICANT WEATHER AND/OR OBSTRUCTIONS TO VISIBILITY.
       CURRENT SKY AND/OR WEATHER CONDITIONS ARE NOT AVAILABLE FOR
       CHILLICOTHE AND FARMINGTON.

MOZ001>031-035>038-043-044-053-054-200900-
...NORTHERN AND WESTERN MISSOURI...

CITY           SKY/WX    TMP DP  RH WIND       PRES   REMARKS
KANSAS CTY INT PTCLDY    68  66  93 S15       29.93S
KANSAS C DTWN  PTCLDY    72  67  84 S10       29.93S
LEE`S SUMMIT   CLEAR     68  66  93 SW7       29.96S
ST JOSEPH      CLEAR     68  66  93 S10       29.90F
KIRKSVILLE     CLEAR     65  62  90 S9        29.94S

$$
MOZ066>068-077>081-088>096-101>105-200900-
...SOUTHWEST MISSOURI...

CITY           SKY/WX    TMP DP  RH WIND       PRES   REMARKS
SPRINGFIELD    CLEAR     65  62  90 S6        30.00F
JOPLIN         CLEAR     68  67  96 S8        29.99F

$$
MOZ032>034-039>042-045>050-055>058-069>072-200900-
...CENTRAL MISSOURI...

CITY           SKY/WX    TMP DP  RH WIND       PRES   REMARKS
COLUMBIA       CLEAR     61  60  97 S6        29.98R FOG
JEFFERSON CITY CLEAR     64  61  90 E3        29.97S
ROLLA          CLEAR     65  62  90 S9        29.98F
SEDALIA        CLEAR     68  63  84 SW9       29.96F
OSAGE BEACH    CLEAR     63  61  94 S5        29.98S

$$
MOZ051-052-059>065-200900-
...EAST CENTRAL MISSOURI...

CITY           SKY/WX    TMP DP  RH WIND       PRES   REMARKS
ST LOUIS INTL  PTCLDY    68  59  73 S3        29.99R
SPIRIT OF STL  CLEAR     58  57  97 CALM      29.98S FOG
ST CHARLES     CLEAR     58  56  93 CALM      29.98S

$$
MOZ072>076-082>087-097>100-106>115-200900-
...SOUTH CENTRAL AND SOUTHEAST MISSOURI...

CITY           SKY/WX    TMP DP  RH WIND       PRES   REMARKS
CAPE GIRARDEAU CLEAR     58  56  93 CALM      30.01F
FARMINGTON     CLEAR     59  57  94 CALM      30.03S
POPLAR BLUFF   CLEAR     60  57  89 CALM      30.00F FOG
WEST PLAINS    CLEAR     64  61  90 S3        30.04F

$$



USA.gov is the U.S. government's official web portal to all federal, state and local government web resources and services.